Terug naar catalogus

FENGYUN 1C DEB

ActiefPO
NORAD 46451·DEBRIS·🇨🇳 China

Gelanceerd May 10, 1999 vanaf Taiyuan Satellite Launch Center

Loading…

Volgende Passages (komende 24 uur)

TLE

VersSource: Space-Track

Epoch: Sep 14, 2026, 18:49 UTC

1 46451U 99025EZG 26257.78455865  .00004257  00000-0  16352-2 0  9992
2 46451  98.1463 261.2828 0166345  94.4870  79.0086 14.23562400609304

Volg FENGYUN 1C DEB in realtime met AllMySat

Download on the App Store